User: anonymous   Login
Location: Unspecified
(0.0000°N, 0.0000°E)
Time: 22:26:04
(UTC+00:00)
Language:

JILIN-01-05 - Orbit

View from above orbital plane
View from above orbital plane
View from above satellite
View from above satellite

Ground track
Ground track

The orbit is defined by the following mean orbital elements,

1 43023U          26145.61184933 +.00000000 +00000-0 +23846-3 0 00004
2 43023  97.4840 251.4704 0003960 318.9451  41.1493 15.33472445    08
Epoch (UTC): 25 May 2026 14:41:03
Eccentricity: 0.0003960
inclination: 97.4840°
perigee height: 463 km
apogee height: 468 km
right ascension of ascending node: 251.4704°
argument of perigee: 318.9451°
revolutions per day: 15.33472445
mean anomaly at epoch: 41.1493°

The dashed part of the orbit path shows where the satellite is in the earth's shadow,  

DLR